Location: Carri�res
(48.9069°N, 2.1792°E)
Time: 13:43:45
(UTC+00:00)

CZ-2C R/B - Pass Details

Date: 17 January 2021
Orbit: 704 x 908 km, 98.1° (Epoch: 25 February)

Event Time Altitude Azimuth Distance (km) Brightness Sun altitude
Rises 17:42:41 0° 153° (SSE) 3,247 6.1 -12.4°
Reaches altitude 10° 17:44:57 10° 150° (SSE) 2,352 5.4 -12.7°
Maximum altitude 17:50:05 62° 71° (ENE) 929 3.1 -13.5°
Drops below altitude 10° 17:55:33 10° 352° (N) 2,501 5.6 -14.4°
Sets 17:58:01 0° 349° (N) 3,468 6.4 -14.8°
